sat.trackr.live / text

‹ back to catalog

STARLINK-33668

NORAD 63402 · 2025-065D

PAYLOAD ACTIVE UNKNOWN

§ Identity

Operator
Country
US
Launch date
2025-03-31
Launch site
AFETR
Launch vehicle
Mass (kg)
RCS (m²)

Purposes: comms

External: N2YO · Heavens-Above · Gunter

§ Orbital elements

Epoch: 2026-05-25T02:14:18.299904Z

Period
94.27 min
Inclination
43.0043°
Eccentricity
0.0001409
Mean motion
15.27597238 rev/d
Perigee alt
482.0 km
Apogee alt
484.0 km
Semi-major
6,861.1 km
B*
6.2504e-4
RAAN
35.7017°
Arg perigee
263.8828°
Mean anomaly
96.1863°
Rev number
6,452

§ Raw data

STARLINK-336681 63402U 25065D   26145.09326736  .00016986  00000+0  62504-3 0  99962 63402  43.0043  35.7017 0001409 263.8828  96.1863 15.27597238 64524

JSON: /api/v1/satellites/63402 · /tle

For live sub-satellite position, see the globe view (requires WebGL).

§ Visibility from observer

Set your observer location to see the next 7 days of passes ≥ 10°. The values pass through the URL so the page stays shareable.

No JS? Fill the form by hand. The geolocation button needs JavaScript.